| time (UTC) | temp F | wind direction | speed MPH | gust MPH | rain 1hr in | rain 24hr in | rain mn in | humidity % | barometer mb |
| 20260510000204 | 60 | 314 | 0.0 | 0.0 | 0.00 | 0.00 | 0.00 | 71 | 1031.2 |
| 20260509234704 | 59 | 300 | 0.0 | 1.0 | 0.00 | 0.00 | 0.00 | 77 | 1031.2 |
| 20260509233204 | 58 | 317 | 0.0 | 0.0 | 0.00 | 0.00 | 0.00 | 81 | 1030.8 |
| 20260509231704 | 58 | 327 | 0.0 | 0.0 | 0.00 | 0.00 | 0.00 | 84 | 1030.8 |
| 20260509230204 | 57 | 316 | 0.0 | 0.0 | 0.00 | 0.00 | 0.00 | 87 | 1030.8 |
| 20260509224704 | 56 | 326 | 0.0 | 0.0 | 0.00 | 0.00 | 0.00 | 91 | 1030.5 |
| 20260509223204 | 56 | 326 | 0.0 | 0.0 | 0.00 | 0.00 | 0.00 | 92 | 1030.5 |
| 20260509221704 | 55 | 322 | 0.0 | 0.0 | 0.00 | 0.00 | 0.00 | 93 | 1030.5 |
| 20260509220203 | 55 | 324 | 0.0 | 0.0 | 0.00 | 0.00 | 0.00 | 93 | 1030.2 |
| 20260509214704 | 54 | 325 | 0.0 | 0.0 | 0.00 | 0.00 | 0.00 | 93 | 1030.2 |
| 20260509213204 | 54 | 323 | 1.0 | 1.0 | 0.00 | 0.00 | 0.00 | 93 | 1029.8 |
| 20260509211704 | 54 | 320 | 0.0 | 0.0 | 0.00 | 0.00 | 0.00 | 93 | 1029.8 |
| 20260509210204 | 53 | 320 | 0.0 | 0.0 | 0.00 | 0.00 | 0.00 | 93 | 1029.5 |
| 20260509204704 | 53 | 320 | 0.0 | 0.0 | 0.00 | 0.00 | 0.00 | 93 | 1029.5 |
| 20260509203203 | 54 | 320 | 0.0 | 0.0 | 0.00 | 0.00 | 0.00 | 92 | 1029.2 |
| 20260509201704 | 53 | 333 | 0.0 | 0.0 | 0.00 | 0.00 | 0.00 | 92 | 1029.2 |
| 20260509200204 | 53 | 328 | 0.0 | 0.0 | 0.00 | 0.00 | 0.00 | 92 | 1029.2 |
| 20260509194704 | 54 | 315 | 0.0 | 0.0 | 0.00 | 0.00 | 0.00 | 92 | 1029.2 |
| 20260509193204 | 54 | 333 | 0.0 | 0.0 | 0.00 | 0.00 | 0.00 | 92 | 1028.8 |
| 20260509191704 | 54 | 330 | 0.0 | 0.0 | 0.00 | 0.00 | 0.00 | 93 | 1028.8 |
| 20260509190204 | 54 | 328 | 0.0 | 0.0 | 0.00 | 0.00 | 0.00 | 93 | 1028.5 |
| 20260509184704 | 54 | 330 | 0.0 | 0.0 | 0.00 | 0.00 | 0.00 | 93 | 1028.5 |
| 20260509183203 | 54 | 290 | 1.0 | 1.0 | 0.00 | 0.00 | 0.00 | 94 | 1028.5 |
| 20260509181703 | 54 | 317 | 0.0 | 0.0 | 0.00 | 0.00 | 0.00 | 94 | 1028.5 |
| 20260509180204 | 54 | 321 | 0.0 | 0.0 | 0.00 | 0.00 | 0.00 | 94 | 1027.8 |
| 20260509174704 | 54 | 331 | 0.0 | 0.0 | 0.00 | 0.00 | 0.00 | 94 | 1028.1 |
| 20260509173204 | 54 | 330 | 0.0 | 0.0 | 0.00 | 0.00 | 0.00 | 94 | 1028.1 |
| 20260509171704 | 54 | 318 | 0.0 | 0.0 | 0.00 | 0.00 | 0.00 | 94 | 1028.1 |
| 20260509170204 | 53 | 321 | 0.0 | 0.0 | 0.00 | 0.00 | 0.00 | 94 | 1028.1 |
| 20260509164703 | 53 | 318 | 0.0 | 0.0 | 0.00 | 0.00 | 0.00 | 93 | 1028.1 |
| 20260509163203 | 53 | 329 | 0.0 | 0.0 | 0.00 | 0.00 | 0.00 | 93 | 1028.1 |
| 20260509161712 | 0 | 0.0 | 0.0 | 0.00 | 0.00 | 0.00 | |||
| 20260509160204 | 55 | 329 | 0.0 | 0.0 | 0.00 | 0.00 | 0.00 | 93 | 1028.1 |
| 20260509154704 | 56 | 329 | 0.0 | 0.0 | 0.00 | 0.00 | 0.00 | 92 | 1028.5 |
| 20260509153204 | 56 | 317 | 0.0 | 0.0 | 0.00 | 0.00 | 0.00 | 92 | 1028.5 |
| 20260509151704 | 56 | 317 | 0.0 | 0.0 | 0.00 | 0.00 | 0.00 | 92 | 1028.5 |
| 20260509150204 | 56 | 313 | 1.0 | 1.0 | 0.00 | 0.00 | 0.00 | 92 | 1028.5 |
| 20260509144704 | 56 | 316 | 0.0 | 0.0 | 0.00 | 0.00 | 0.00 | 92 | 1028.5 |
| 20260509143204 | 56 | 316 | 0.0 | 0.0 | 0.00 | 0.00 | 0.00 | 91 | 1028.5 |
| 20260509141704 | 56 | 304 | 1.0 | 1.0 | 0.00 | 0.00 | 0.00 | 90 | 1028.5 |
| 20260509140204 | 56 | 308 | 1.0 | 1.0 | 0.00 | 0.00 | 0.00 | 90 | 1028.5 |
| 20260509134704 | 56 | 317 | 0.0 | 0.0 | 0.00 | 0.00 | 0.00 | 89 | 1028.5 |
| 20260509133205 | 56 | 318 | 0.0 | 0.0 | 0.00 | 0.00 | 0.00 | 88 | 1028.5 |
| 20260509131704 | 57 | 317 | 0.0 | 0.0 | 0.00 | 0.00 | 0.00 | 88 | 1028.5 |
| 20260509130204 | 57 | 308 | 0.0 | 1.0 | 0.00 | 0.00 | 0.00 | 87 | 1028.5 |
| 20260509124704 | 57 | 298 | 1.0 | 2.0 | 0.00 | 0.00 | 0.00 | 85 | 1028.5 |
| 20260509123204 | 57 | 313 | 0.0 | 0.0 | 0.00 | 0.00 | 0.00 | 86 | 1028.5 |
| 20260509121704 | 57 | 313 | 0.0 | 0.0 | 0.00 | 0.00 | 0.00 | 86 | 1028.5 |
| 20260509120204 | 56 | 315 | 0.0 | 0.0 | 0.00 | 0.00 | 0.00 | 87 | 1028.5 |
| 20260509114704 | 56 | 304 | 0.0 | 1.0 | 0.00 | 0.00 | 0.00 | 89 | 1028.5 |
| 20260509113204 | 56 | 327 | 0.0 | 0.0 | 0.00 | 0.00 | 0.00 | 89 | 1028.1 |
| 20260509111705 | 55 | 317 | 0.0 | 0.0 | 0.00 | 0.00 | 0.00 | 89 | 1028.1 |
| 20260509110204 | 55 | 318 | 0.0 | 0.0 | 0.00 | 0.00 | 0.00 | 89 | 1028.1 |
| 20260509104704 | 55 | 318 | 0.0 | 0.0 | 0.00 | 0.00 | 0.00 | 89 | 1028.1 |
| 20260509103204 | 54 | 313 | 0.0 | 0.0 | 0.00 | 0.00 | 0.00 | 88 | 1028.1 |
| 20260509101703 | 54 | 312 | 0.0 | 0.0 | 0.00 | 0.00 | 0.00 | 89 | 1028.1 |
| 20260509100205 | 55 | 314 | 0.0 | 0.0 | 0.00 | 0.00 | 0.00 | 88 | 1027.8 |
| 20260509094704 | 55 | 298 | 1.0 | 1.0 | 0.00 | 0.00 | 0.00 | 87 | 1028.1 |
| 20260509093204 | 56 | 283 | 1.0 | 1.0 | 0.00 | 0.00 | 0.00 | 87 | 1028.1 |
| 20260509091705 | 57 | 307 | 0.0 | 1.0 | 0.00 | 0.00 | 0.00 | 85 | 1027.8 |
| 20260509090203 | 58 | 292 | 0.0 | 1.0 | 0.00 | 0.00 | 0.00 | 84 | 1027.8 |
| 20260509084704 | 58 | 294 | 1.0 | 2.0 | 0.00 | 0.00 | 0.00 | 83 | 1027.8 |
| 20260509083204 | 58 | 306 | 0.0 | 0.0 | 0.00 | 0.00 | 0.00 | 85 | 1027.5 |
| 20260509081704 | 59 | 293 | 1.0 | 3.0 | 0.00 | 0.00 | 0.00 | 85 | 1027.1 |
| 20260509080204 | 59 | 246 | 4.0 | 4.0 | 0.00 | 0.00 | 0.00 | 86 | 1027.1 |
| 20260509074704 | 59 | 275 | 2.0 | 3.0 | 0.00 | 0.00 | 0.00 | 85 | 1026.8 |
| 20260509073204 | 59 | 302 | 1.0 | 1.0 | 0.00 | 0.00 | 0.00 | 84 | 1026.8 |
| 20260509071704 | 59 | 218 | 3.0 | 3.0 | 0.00 | 0.00 | 0.00 | 83 | 1026.8 |
| 20260509070204 | 59 | 296 | 1.0 | 2.0 | 0.00 | 0.00 | 0.00 | 84 | 1026.4 |
| 20260509064704 | 60 | 273 | 4.0 | 4.0 | 0.00 | 0.00 | 0.00 | 82 | 1026.4 |
| 20260509063204 | 60 | 309 | 2.0 | 3.0 | 0.00 | 0.00 | 0.00 | 81 | 1026.4 |
| 20260509061704 | 60 | 315 | 0.0 | 1.0 | 0.00 | 0.00 | 0.00 | 81 | 1026.4 |
| 20260509060203 | 61 | 317 | 1.0 | 1.0 | 0.00 | 0.00 | 0.00 | 80 | 1026.4 |
| 20260509054704 | 61 | 306 | 3.0 | 3.0 | 0.00 | 0.00 | 0.00 | 79 | 1026.4 |
| 20260509053203 | 61 | 326 | 1.0 | 1.0 | 0.00 | 0.00 | 0.00 | 80 | 1026.4 |
| 20260509051703 | 62 | 311 | 2.0 | 2.0 | 0.00 | 0.00 | 0.00 | 79 | 1026.1 |
| 20260509050204 | 62 | 299 | 4.0 | 6.0 | 0.00 | 0.00 | 0.00 | 78 | 1026.1 |
| 20260509044704 | 61 | 294 | 4.0 | 6.0 | 0.00 | 0.00 | 0.00 | 79 | 1026.4 |
| 20260509043204 | 64 | 284 | 2.0 | 3.0 | 0.00 | 0.00 | 0.00 | 74 | 1026.1 |
| 20260509041704 | 64 | 237 | 3.0 | 3.0 | 0.00 | 0.00 | 0.00 | 74 | 1026.4 |
| 20260509040203 | 63 | 279 | 3.0 | 4.0 | 0.00 | 0.00 | 0.00 | 76 | 1026.1 |
| 20260509034703 | 64 | 296 | 3.0 | 6.0 | 0.00 | 0.00 | 0.00 | 72 | 1026.4 |
| 20260509033204 | 63 | 307 | 2.0 | 2.0 | 0.00 | 0.00 | 0.00 | 74 | 1026.4 |
| 20260509031704 | 63 | 252 | 1.0 | 2.0 | 0.00 | 0.00 | 0.00 | 74 | 1026.4 |
| 20260509030203 | 63 | 261 | 3.0 | 3.0 | 0.00 | 0.00 | 0.00 | 74 | 1026.8 |
| 20260509024703 | 62 | 300 | 2.0 | 3.0 | 0.00 | 0.00 | 0.00 | 76 | 1026.8 |
| 20260509023232 | 61 | 283 | 2.0 | 2.0 | 0.00 | 0.00 | 0.00 | 78 | 1026.8 |
| 20260509021704 | 61 | 252 | 1.0 | 2.0 | 0.00 | 0.00 | 0.00 | 78 | 1027.1 |
| 20260509020204 | 63 | 300 | 4.0 | 4.0 | 0.00 | 0.00 | 0.00 | 73 | 1027.1 |
| 20260509014704 | 61 | 156 | 2.0 | 3.0 | 0.00 | 0.00 | 0.00 | 73 | 1027.5 |
| 20260509013204 | 61 | 246 | 2.0 | 3.0 | 0.00 | 0.00 | 0.00 | 74 | 1027.5 |
| 20260509011704 | 61 | 241 | 3.0 | 3.0 | 0.00 | 0.00 | 0.00 | 77 | 1027.8 |
| 20260509010203 | 61 | 191 | 2.0 | 3.0 | 0.00 | 0.00 | 0.00 | 77 | 1027.5 |
| 20260509004703 | 63 | 246 | 3.0 | 4.0 | 0.00 | 0.00 | 0.00 | 74 | 1027.5 |
| 20260509003203 | 60 | 319 | 2.0 | 3.0 | 0.00 | 0.00 | 0.00 | 80 | 1027.5 |
| 20260509001704 | 60 | 326 | 2.0 | 2.0 | 0.00 | 0.00 | 0.00 | 78 | 1027.5 |